Regional Weather Roundup
Issued by NWS Huntsville, AL

Current Version | Previous Version | Text Only | Print | Product List | Glossary On
Versions: 1 2 3 4 5 6 7 8 9 10 11 12 13 14 15 16 17 18 19 20 21 22 23 24 25 26 27 28 29 30 31 32 33 34 35 36 37 38 39 40 41 42 43 44 45 46 47 48 49
000
ASUS44 KHUN 032310
RWRHUN

WEATHER ROUNDUP FOR THE TENNESSEE VALLEY
NATIONAL WEATHER SERVICE HUNTSVILLE AL
600 PM CDT WED JUN 03 2015

ALZ001>004-040000-
NORTHWEST ALABAMA

CITY           SKY/WX    TMP DP  RH WIND       PRES   REMARKS
COURTLAND HCN    N/A     75 N/A N/A NW3         N/A
BANKHEAD NF      N/A     77  61  58 NW3         N/A
RUSSELLVILLE     N/A     75 N/A N/A MISG        N/A
SHOALS AIRPORT PTSUNNY   77  59  53 NW7       29.96F
SHOALS TVA RES   N/A     75 N/A N/A MISG        N/A
$$

ALZ005>007-016-040000-
NORTH CENTRAL ALABAMA

CITY           SKY/WX    TMP DP  RH WIND       PRES   REMARKS
CULLMAN AG STN   N/A     75 N/A N/A N5          N/A
DECATUR AP     PTSUNNY   76  63  64 N10       29.95S
HUNTSVILLE AP  MOSUNNY   78  62  57 N10       29.94S
HUN NWS/UAH      N/A     77  60  55 N7          N/A
MERIDIANVILLE  SUNNY     75  59  57 NW12      29.96S
REDSTONE ARSN  SUNNY     74  64  68 N13       29.94S
VINEMONT AP    FAIR      76  62  61 N3        29.97S
$$

ALZ008>010-040000-
NORTHEAST ALABAMA

CITY           SKY/WX    TMP DP  RH WIND       PRES   REMARKS
ALBERTVILLE    MOSUNNY   79  68  69 N8        29.93S
FORT PAYNE     SUNNY     79  55  44 E5        29.93S
SCOTTSBORO HCN   N/A     75 N/A N/A MISG        N/A
VALLEY HEAD      N/A     75 N/A N/A MISG        N/A
$$

TNZ076-096-097-040000-
SOUTHEASTERN MIDDLE TENNESSEE

CITY           SKY/WX    TMP DP  RH WIND       PRES   REMARKS
TULLAHOMA      MOSUNNY   73  63  68 N7        29.98S
WINCHESTER     MOSUNNY   75  63  64 VRB7      29.96S
$$

...SURROUNDING SITES...

CITY           SKY/WX    TMP DP  RH WIND       PRES   REMARKS
ATLANTA        PTSUNNY   74  66  76 SE8       29.94F
ANNISTON       SUNNY     83  57  41 SW3       29.91S
BIRMINGHAM     MOSUNNY   80  63  55 N8        29.95R
CHATTANOOGA    PTSUNNY   74  58  57 CALM      29.94S
CORINTH        CLOUDY    72  61  68 N6        29.97F
DALTON         MOSUNNY   73  63  68 S3        29.96R
GADSDEN        PTSUNNY  N/A N/A N/A NW8       29.90S
GOLDEN TRNGL   PTSUNNY   81  61  50 N9        29.94S
HALEYVILLE     FAIR      74  60  61 CALM      29.99S
JACKSON TN     PTSUNNY   75  58  55 N6        29.97F
LEWISBURG      FAIR      75  60  59 N6        29.97S
MEMPHIS        PTSUNNY   76  59  55 NE9       29.98S
NASHVILLE      PTSUNNY   74  60  61 N7        29.98F
OXFORD MS      CLOUDY    73  59  60 NE9       29.99F
ROME           CLOUDY    71  65  81 VRB5      29.95S
SAVANNAH       MOSUNNY   73  32  21 N6        29.98F
TUPELO         MOSUNNY   74  57  55 N8        29.96F
TUSCALOOSA     SUNNY     82  58  43 N8        29.93S
$$

...GULF COAST WEATHER...

CITY           SKY/WX    TMP DP  RH WIND       PRES   REMARKS
GULFPORT       PTSUNNY   85  70  60 S5        29.87F
PASCAGOULA     SUNNY     83  71  67 SW7       29.88S
MOBILE         PTSUNNY   82  71  69 S7        29.89S
GULF SHORES    CLEAR     83  72  69 SW6       29.88F
PENSACOLA      PTSUNNY   82  70  66 SW7       29.87F
DESTIN         MOSUNNY   84  72  67 VRB5      29.88S
PANAMA CITY    SUNNY     82  70  67 S7        29.88F
APPALACHICOLA  SUNNY     86  69  56 S9        29.89S HX  90
$$




USA.gov is the U.S. government's official web portal to all federal, state and local government web resources and services.